Cloquet, MN

12:49 PM CST on December 15, 2019 (GMT -0600)
Cloquet Carlton County

Weather History for KCOQ - October, 2019

Change the Weather History Date:

Friday, October 11, 2019

  Actual Average Record
Temperature  
Mean Temperature 46 °F -  
Max Temperature 59 °F 53 °F 82 °F (2015)
Min Temperature 32 °F 35 °F 21 °F (2006)
Degree Days  
Heating Degree Days 20    
Moisture  
Dew Point 36 °F    
Average Humidity 82    
Maximum Humidity 100    
Minimum Humidity 60    
Precipitation  
Precipitation 0.05 in - - ()
Sea Level Pressure  
Sea Level Pressure 29.59 in    
Wind  
Wind Speed 11 mph ()    
Max Wind Speed 22 mph    
Max Gust Speed 31 mph    
Visibility 7.0 miles    
Events Rain , Snow , Thunderstorm    
Averages and records for this station are not official NWS values.
T = Trace of Precipitation, MM = Missing Value Source: Averaged Metar Reports

Daily Weather History Graph

Daily Weather History Graph

Search for Another Location

Airport or City:

Astronomy

Oct. 11, 2019 Rise Set
Actual Time 7:21 AM CDT 6:30 PM CDT
Civil Twilight 6:51 AM CDT 7:01 PM CDT
Nautical Twilight 6:16 AM CDT 7:36 PM CDT
Astronomical Twilight 5:41 AM CDT 8:11 PM CDT
Moon 6:11 PM CDT (10/11) 4:49 AM CDT (10/11)
Length of Visible Light 12h 09m
Length of Day
11h 08m
Waxing Gibbous, 96% of the Moon is Illuminated
Oct 11
Waxing Gibbous
Oct 13
Full
Oct 21
Last Quarter
Oct 27
New
Nov 4
First Quarter

Hourly Weather History & Observations

Time (CDT) Temp. Windchill Dew Point Humidity Pressure Visibility Wind Dir Wind Speed Gust Speed Precip Events Conditions
12:15 AM 57.2 °F - 55.4 °F 94% 29.66 in 3.0 mi ESE 8.1 mph - 0.01 in Rain , Thunderstorm Rain
12:35 AM 57.2 °F - 55.4 °F 94% 29.65 in 3.0 mi ESE 6.9 mph - 0.01 in Rain Light Rain
12:36 AM 57.2 °F - 55.4 °F 94% 29.65 in 3.0 mi ESE 8.1 mph - 0.01 in Rain Light Rain
12:55 AM 57.2 °F - 55.4 °F 94% 29.64 in 2.5 mi ESE 6.9 mph - 0.01 in   Heavy Drizzle
12:56 AM 57.2 °F - 55.4 °F 94% 29.64 in 2.5 mi ESE 8.1 mph - N/A   Heavy Drizzle
1:15 AM 57.2 °F - 55.4 °F 94% 29.63 in 2.5 mi ESE 8.1 mph - 0.01 in   Drizzle
1:35 AM 57.2 °F - 55.4 °F 94% 29.61 in 2.5 mi East 8.1 mph - 0.01 in Rain , Thunderstorm Rain
1:55 AM 57.2 °F - 55.4 °F 94% 29.60 in 3.0 mi ESE 6.9 mph - 0.01 in Rain , Thunderstorm Light Thunderstorms and Rain
1:56 AM 57.2 °F - 55.4 °F 94% 29.60 in 3.0 mi ESE 6.9 mph - N/A Rain , Thunderstorm Light Thunderstorms and Rain
2:15 AM 57.2 °F - 55.4 °F 94% 29.59 in 2.5 mi ESE 6.9 mph - N/A Thunderstorm Overcast
2:16 AM 57.2 °F - 55.4 °F 94% 29.59 in 2.0 mi ESE 8.1 mph - N/A Rain , Thunderstorm Light Thunderstorms and Rain
2:35 AM 57.2 °F - 55.4 °F 94% 29.58 in 2.5 mi ESE 9.2 mph - 0.01 in   Heavy Drizzle
2:36 AM 57.2 °F - 55.4 °F 94% 29.58 in 2.5 mi ESE 9.2 mph - 0.01 in   Heavy Drizzle
2:55 AM 57.2 °F - 55.4 °F 94% 29.57 in 3.0 mi SE 8.1 mph - 0.01 in Thunderstorm Unknown
2:56 AM 57.2 °F - 55.4 °F 94% 29.57 in 3.0 mi ESE 5.8 mph - N/A   Light Drizzle
3:15 AM 59.0 °F - 57.2 °F 94% 29.55 in 3.0 mi ESE 9.2 mph 16.1 mph N/A   Overcast
3:35 AM 59.0 °F - 57.2 °F 94% 29.54 in 3.0 mi SE 8.1 mph 16.1 mph N/A Rain , Thunderstorm Thunderstorms and Rain
3:36 AM 59.0 °F - 57.2 °F 94% 29.54 in 4.0 mi SE 6.9 mph 16.1 mph 0.01 in Rain , Thunderstorm Thunderstorms and Rain
3:55 AM 55.4 °F - 53.6 °F 94% 29.56 in 5.0 mi SSW 12.7 mph 20.7 mph 0.01 in Rain Light Rain
4:15 AM 55.4 °F - 53.6 °F 94% 29.56 in 4.0 mi South 9.2 mph - N/A Rain Heavy Rain
4:35 AM 55.4 °F - 51.8 °F 88% 29.56 in 10.0 mi SSW 12.7 mph 18.4 mph 0.01 in Rain Light Rain
4:55 AM 51.8 °F - 50.0 °F 94% 29.57 in 7.0 mi South 13.8 mph 19.6 mph 0.01 in Rain Light Rain
5:15 AM 46.4 °F 40.4 °F 44.6 °F 93% 29.57 in 3.0 mi SW 13.8 mph 20.7 mph N/A   Overcast
5:16 AM 46.4 °F 40.7 °F 44.6 °F 93% 29.57 in 3.0 mi SW 12.7 mph 20.7 mph N/A   Overcast
5:35 AM 44.6 °F 38.8 °F 42.8 °F 93% 29.57 in 3.0 mi SW 11.5 mph 17.3 mph N/A   Overcast
5:55 AM 44.6 °F 41.4 °F 42.8 °F 93% 29.58 in 7.0 mi South 5.8 mph - N/A   Overcast
6:15 AM 44.6 °F 38.4 °F 42.8 °F 93% 29.58 in 5.0 mi SSW 12.7 mph 23.0 mph N/A   Overcast
6:16 AM 44.6 °F 38.4 °F 42.8 °F 93% 29.58 in 4.0 mi SSW 12.7 mph 23.0 mph N/A   Overcast
6:35 AM 42.8 °F 36.2 °F 41.0 °F 93% 29.59 in 2.0 mi SSW 12.7 mph 19.6 mph N/A   Drizzle
6:55 AM 41.0 °F 33.1 °F 39.2 °F 93% 29.60 in 2.5 mi SSW 15.0 mph 19.6 mph N/A Rain Light Rain
6:56 AM 41.0 °F 32.8 °F 39.2 °F 93% 29.59 in 2.5 mi SSW 16.1 mph 20.7 mph N/A Rain Light Rain
7:15 AM 39.2 °F 29.8 °F 37.4 °F 93% 29.62 in 2.5 mi South 18.4 mph 25.3 mph N/A Rain Light Rain
7:35 AM 39.2 °F 32.0 °F 37.4 °F 93% 29.63 in 5.0 mi South 11.5 mph - N/A   Overcast
7:36 AM 39.2 °F 32.5 °F 37.4 °F 93% 29.63 in 5.0 mi South 10.4 mph - N/A   Overcast
7:55 AM 37.4 °F 30.8 °F 37.4 °F 100% 29.60 in 3.0 mi SSW 9.2 mph - N/A   Overcast
7:56 AM 37.4 °F 30.3 °F 37.4 °F 100% 29.60 in 3.0 mi SSW 10.4 mph - N/A   Overcast
8:15 AM 37.4 °F 29.3 °F 35.6 °F 93% 29.62 in 3.0 mi SSW 12.7 mph 18.4 mph N/A   Overcast
8:16 AM 37.4 °F 29.3 °F 35.6 °F 93% 29.62 in 3.0 mi SSW 12.7 mph 19.6 mph N/A   Overcast
8:35 AM 37.4 °F 28.9 °F 35.6 °F 93% 29.63 in 5.0 mi South 13.8 mph - N/A   Light Drizzle
8:36 AM 37.4 °F 29.3 °F 35.6 °F 93% 29.63 in 7.0 mi South 12.7 mph - N/A   Overcast
8:55 AM 37.4 °F 29.3 °F 35.6 °F 93% 29.63 in 10.0 mi SSW 12.7 mph 18.4 mph N/A   Overcast
8:56 AM 37.4 °F 29.8 °F 35.6 °F 93% 29.63 in 10.0 mi SSW 11.5 mph 18.4 mph N/A   Overcast
9:15 AM 37.4 °F 29.3 °F 33.8 °F 87% 29.62 in 5.0 mi SSW 12.7 mph 20.7 mph N/A   Overcast
9:35 AM 35.6 °F 26.2 °F 33.8 °F 93% 29.63 in 7.0 mi South 15.0 mph 20.7 mph N/A   Overcast
9:36 AM 35.6 °F 26.2 °F 33.8 °F 93% 29.63 in 7.0 mi South 15.0 mph 20.7 mph N/A   Overcast
9:55 AM 35.6 °F 28.0 °F 33.8 °F 93% 29.63 in 10.0 mi SSW 10.4 mph 23.0 mph N/A Rain Light Rain
10:15 AM 35.6 °F 25.9 °F 33.8 °F 93% 29.63 in 10.0 mi SSW 16.1 mph 24.2 mph N/A Rain Light Rain
10:35 AM 35.6 °F 25.9 °F 32.0 °F 87% 29.64 in 7.0 mi SSW 16.1 mph 23.0 mph N/A Snow Light Snow
10:36 AM 35.6 °F 25.9 °F 32.0 °F 87% 29.64 in 7.0 mi SSW 16.1 mph 23.0 mph N/A Snow Light Snow
10:55 AM 35.6 °F 25.5 °F 32.0 °F 87% 29.64 in 10.0 mi South 17.3 mph 21.9 mph N/A   Overcast
11:15 AM 35.6 °F 27.5 °F 30.2 °F 81% 29.64 in 7.0 mi SSW 11.5 mph 21.9 mph N/A Rain Light Rain
11:16 AM 35.6 °F 27.1 °F 32.0 °F 87% 29.64 in 7.0 mi SSW 12.7 mph 21.9 mph N/A Rain Light Rain
11:35 AM 35.6 °F 27.1 °F 32.0 °F 87% 29.64 in 7.0 mi SSW 12.7 mph 16.1 mph N/A Snow Light Snow
12:15 PM 37.4 °F 27.2 °F 32.0 °F 81% 29.63 in 10.0 mi SSW 19.6 mph 25.3 mph N/A   Overcast
12:35 PM 35.6 °F 27.5 °F 30.2 °F 81% 29.62 in 4.0 mi SSW 11.5 mph 25.3 mph N/A   Haze
12:55 PM 35.6 °F 26.6 °F 30.2 °F 81% 29.62 in 5.0 mi SSW 13.8 mph 26.5 mph N/A Rain Rain
12:56 PM 35.6 °F 27.1 °F 30.2 °F 81% 29.61 in 5.0 mi SSW 12.7 mph 26.5 mph N/A   Light Drizzle
1:15 PM 37.4 °F 30.8 °F 30.2 °F 75% 29.61 in 10.0 mi SSW 9.2 mph 24.2 mph N/A   Overcast
1:35 PM 37.4 °F 30.3 °F 30.2 °F 75% 29.60 in 10.0 mi South 10.4 mph 18.4 mph N/A   Overcast
1:55 PM 37.4 °F 28.5 °F 28.4 °F 70% 29.60 in 10.0 mi South 15.0 mph 24.2 mph N/A   Overcast
1:56 PM 37.4 °F 28.9 °F 28.4 °F 70% 29.60 in 10.0 mi South 13.8 mph 24.2 mph N/A   Overcast
2:15 PM 37.4 °F 28.5 °F 28.4 °F 70% 29.59 in 10.0 mi South 15.0 mph 21.9 mph N/A   Overcast
2:16 PM 37.4 °F 28.9 °F 28.4 °F 70% 29.59 in 10.0 mi South 13.8 mph 21.9 mph N/A   Overcast
2:35 PM 39.2 °F 29.3 °F 28.4 °F 65% 29.59 in 10.0 mi South 20.7 mph 27.6 mph N/A   Overcast
2:36 PM 39.2 °F 29.0 °F 28.4 °F 65% 29.59 in 10.0 mi South 21.9 mph 28.8 mph N/A   Overcast
2:55 PM 37.4 °F 27.8 °F 26.6 °F 65% 29.59 in 10.0 mi SSW 17.3 mph 31.1 mph N/A   Overcast
3:15 PM 37.4 °F 27.5 °F 26.6 °F 65% 29.58 in 10.0 mi South 18.4 mph 29.9 mph N/A   Overcast
3:16 PM 37.4 °F 27.2 °F 26.6 °F 65% 29.59 in 10.0 mi South 19.6 mph 29.9 mph N/A   Overcast
3:35 PM 37.4 °F 28.2 °F 26.6 °F 65% 29.58 in 10.0 mi South 16.1 mph 24.2 mph N/A   Overcast
3:36 PM 37.4 °F 27.5 °F 26.6 °F 65% 29.58 in 10.0 mi South 18.4 mph 24.2 mph N/A   Overcast
3:55 PM 37.4 °F 28.2 °F 26.6 °F 65% 29.58 in 10.0 mi South 16.1 mph 23.0 mph N/A   Overcast
4:15 PM 37.4 °F 27.5 °F 26.6 °F 65% 29.57 in 10.0 mi South 18.4 mph 25.3 mph N/A   Overcast
4:16 PM 37.4 °F 27.8 °F 26.6 °F 65% 29.57 in 10.0 mi South 17.3 mph 25.3 mph N/A   Overcast
4:35 PM 37.4 °F 29.3 °F 24.8 °F 60% 29.57 in 10.0 mi South 12.7 mph 24.2 mph N/A   Overcast
4:55 PM 37.4 °F 27.2 °F 24.8 °F 60% 29.56 in 10.0 mi South 19.6 mph 27.6 mph N/A   Overcast
5:15 PM 37.4 °F 26.9 °F 24.8 °F 60% 29.56 in 10.0 mi South 20.7 mph 27.6 mph N/A   Overcast
5:35 PM 37.4 °F 28.5 °F 24.8 °F 60% 29.56 in 10.0 mi SSW 15.0 mph 23.0 mph N/A   Overcast
5:55 PM 37.4 °F 27.2 °F 24.8 °F 60% 29.56 in 10.0 mi SSW 19.6 mph 28.8 mph N/A   Overcast
6:15 PM 35.6 °F 26.6 °F 24.8 °F 65% 29.56 in 10.0 mi SSW 13.8 mph 27.6 mph N/A   Scattered Clouds
6:35 PM 35.6 °F 26.6 °F 26.6 °F 70% 29.56 in 10.0 mi South 13.8 mph 23.0 mph N/A   Mostly Cloudy
6:36 PM 35.6 °F 27.1 °F 26.6 °F 70% 29.56 in 10.0 mi SSW 12.7 mph 23.0 mph N/A   Mostly Cloudy
6:55 PM 35.6 °F 27.1 °F 26.6 °F 70% 29.57 in 10.0 mi South 12.7 mph 18.4 mph N/A Snow Light Snow
6:56 PM 35.6 °F 26.6 °F 26.6 °F 70% 29.56 in 10.0 mi South 13.8 mph 19.6 mph N/A Snow Light Snow
7:15 PM 33.8 °F 23.2 °F 26.6 °F 75% 29.56 in 10.0 mi SSW 17.3 mph 21.9 mph N/A   Overcast
7:35 PM 33.8 °F 24.3 °F 26.6 °F 75% 29.56 in 10.0 mi South 13.8 mph 19.6 mph N/A   Mostly Cloudy
7:36 PM 33.8 °F 23.9 °F 26.6 °F 75% 29.56 in 10.0 mi South 15.0 mph 20.7 mph N/A   Mostly Cloudy
7:55 PM 33.8 °F 25.3 °F 26.6 °F 75% 29.56 in 10.0 mi South 11.5 mph 24.2 mph N/A   Mostly Cloudy
7:56 PM 33.8 °F 25.3 °F 26.6 °F 75% 29.56 in 10.0 mi SSW 11.5 mph 24.2 mph N/A   Mostly Cloudy
8:15 PM 33.8 °F 23.5 °F 26.6 °F 75% 29.56 in 10.0 mi SSW 16.1 mph 27.6 mph N/A   Mostly Cloudy
8:16 PM 33.8 °F 24.3 °F 26.6 °F 75% 29.55 in 10.0 mi South 13.8 mph 27.6 mph N/A   Mostly Cloudy
8:35 PM 33.8 °F 24.3 °F 26.6 °F 75% 29.55 in 10.0 mi South 13.8 mph 20.7 mph N/A   Overcast
8:36 PM 33.8 °F 24.3 °F 26.6 °F 75% 29.55 in 10.0 mi South 13.8 mph 20.7 mph N/A   Overcast
8:55 PM 33.8 °F 23.5 °F 24.8 °F 70% 29.55 in 10.0 mi SSW 16.1 mph - N/A   Overcast
9:15 PM 33.8 °F 23.5 °F 26.6 °F 75% 29.54 in 10.0 mi South 16.1 mph 19.6 mph N/A   Overcast
9:16 PM 33.8 °F 23.2 °F 26.6 °F 75% 29.54 in 10.0 mi South 17.3 mph - N/A   Overcast
9:35 PM 33.8 °F 24.8 °F 26.6 °F 75% 29.54 in 10.0 mi South 12.7 mph 25.3 mph N/A   Overcast
9:55 PM 33.8 °F 23.9 °F 26.6 °F 75% 29.53 in 10.0 mi South 15.0 mph 21.9 mph N/A   Overcast
10:15 PM 33.8 °F 24.3 °F 26.6 °F 75% 29.53 in 10.0 mi South 13.8 mph 24.2 mph N/A   Overcast
10:35 PM 33.8 °F 23.9 °F 26.6 °F 75% 29.52 in 10.0 mi South 15.0 mph 23.0 mph N/A   Overcast
10:55 PM 33.8 °F 22.8 °F 26.6 °F 75% 29.52 in 10.0 mi South 18.4 mph 24.2 mph N/A   Overcast
11:15 PM 33.8 °F 23.2 °F 24.8 °F 70% 29.51 in 10.0 mi SSW 17.3 mph 20.7 mph N/A   Overcast
11:35 PM 33.8 °F 23.5 °F 26.6 °F 75% 29.50 in 7.0 mi South 16.1 mph 24.2 mph N/A Snow Light Snow
11:55 PM 32.0 °F 21.2 °F 26.6 °F 80% 29.50 in 4.0 mi South 16.1 mph 23.0 mph N/A Snow Light Snow
11:56 PM 32.0 °F 21.2 °F 26.6 °F 80% 29.49 in 4.0 mi South 16.1 mph 23.0 mph N/A Snow Light Snow